[[{"header":{"parameterUnit":"m.s-1","parameterCategory":2,"la1":30.2992,"la2":30.254,"lo1":-89.0895,"lo2":-89.0443,"dy":0.0025,"dx":0.0025,"nx":19,"ny":19,"refTime":"2026-05-12T21:00:00:Z","depth":"0","parameterNumber":2,"parameterNumberName":"U-component_of_CURRENTS"},"data":[0,0,0,0.2146,0.2152,0.2474,0.2476,0.2691,0.2692,0,0,0,0,0,0,0,0,0,0,0,0.202,0.2021,0.2146,0.2153,0.2474,0.2476,0.2691,0.2693,0,0,0,0,0,0,0,0,0,0,0,0.2019,0.2021,0.2023,0.2154,0.2474,0.2476,0.2691,0.2502,0,0,0,0,0,0,0,0,0,0,0.2216,0.2128,0.2021,0.2023,0.2156,0.2473,0.2476,0.2495,0.2513,0.2484,0,0.2521,0,0.2606,0.2701,0.2701,0,0,0,0.2173,0.2113,0.219,0.2023,0.2159,0.2473,0.2335,0.2507,0.2527,0.2507,0.2525,0.2535,0.2609,0.2701,0.2702,0.2804,0.2804,0,0,0.2155,0.2091,0.2176,0.2202,0.2221,0.2324,0.2344,0.2522,0.2534,0.2526,0.2542,0.2613,0.2702,0.2703,0.2803,0.2804,0,0,0,0.2091,0.2078,0.2156,0.2191,0.2263,0.2333,0.2356,0.2527,0.255,0.2545,0.2615,0.2703,0.2705,0.2803,0.2803,0.2786,0,0,0,0.2081,0.204,0.2147,0.2114,0.226,0.2429,0.2357,0.2538,0.2562,0.2614,0.2703,0.2706,0.2803,0.2803,0.2786,0.2736,0,0,0,0.2009,0.2033,0.2062,0.2109,0.2242,0.2428,0.2466,0.2547,0.2602,0.2701,0.2706,0.2803,0.2803,0.2786,0.2738,0.27,0,0,0,0.1945,0.2009,0.206,0.2159,0.2239,0.2427,0.2466,0.2607,0.2691,0.2704,0.2803,0.2803,0.2786,0.2739,0.2701,0.2485,0.2461,0,0,0.1993,0.2013,0.2075,0.213,0.2301,0.2385,0.2535,0.2647,0.2681,0.2733,0.2739,0.2786,0.2738,0.27,0.2512,0.2486,0,0,0,0.2071,0.2107,0.2171,0.2281,0.2414,0.2508,0.2641,0.2673,0.2748,0.2733,0.2801,0.277,0.2747,0.262,0.2601,0.2456,0.2806,0.2805,0.2805,0.2074,0.2153,0.2246,0.2352,0.2453,0.26,0.2652,0.2706,0.2765,0.2779,0.2769,0.274,0.2607,0.259,0.2445,0.2806,0.2806,0.2806,0.2806,0.2118,0.2155,0.2246,0.2345,0.2438,0.254,0.2651,0.2687,0.2718,0.2767,0.2747,0.2624,0.2566,0.242,0.2805,0.2805,0.2805,0.2805,0.2806,0.2089,0.2104,0.2157,0.2258,0.2341,0.2471,0.2502,0.26,0.2661,0.2654,0.252,0.2518,0.2374,0.2663,0.2663,0.2662,0.2662,0.2662,0.2662,0.2002,0.206,0.207,0.2167,0.2207,0.2286,0.2411,0.2426,0.243,0.2447,0.2446,0.2324,0.2695,0.2683,0.2656,0.2657,0.2658,0.2658,0.2659,0.1944,0.1945,0.1961,0.1983,0.2056,0.203,0.2172,0.2119,0.215,0.2083,0.2001,0.2331,0.23,0.2314,0.2293,0.2166,0.2166,0.2166,0.2166,0.1863,0.1881,0.1839,0.1842,0.1869,0.1907,0.1746,0.1733,0.1701,0.1645,0.1722,0.1699,0.1726,0.1664,0.1692,0.166,0.1376,0.1375,0.1375,0.1795,0.1798,0.1731,0.1747,0.177,0.1726,0.1503,0.1329,0.1293,0.1339,0.1564,0.1597,0.1572,0.1625,0.1541,0.1593,0.1547,0,0]},{"header":{"parameterUnit":"m.s-1","parameterCategory":2,"la1":30.2992,"la2":30.254,"lo1":-89.0895,"lo2":-89.0443,"dy":0.0025,"dx":0.0025,"nx":19,"ny":19,"refTime":"2026-05-12T21:00:00:Z","depth":"0","parameterNumber":3,"parameterNumberName":"V-component_of_CURRENTS"},"data":[0,0,0,-0.0138,-0.0139,-0.0268,-0.0269,-0.0422,-0.0423,0,0,0,0,0,0,0,0,0,0,0,-0.0095,-0.0095,-0.0138,-0.014,-0.0268,-0.0269,-0.0422,-0.0423,0,0,0,0,0,0,0,0,0,0,0,-0.0095,-0.0095,-0.0096,-0.014,-0.0268,-0.0269,-0.0422,-0.0336,0,0,0,0,0,0,0,0,0,0,-0.0216,-0.0172,-0.0095,-0.0096,-0.014,-0.0268,-0.0269,-0.0332,-0.0341,-0.035,0,-0.0349,0,-0.0373,-0.043,-0.043,0,0,0,-0.0174,-0.0165,-0.0185,-0.0096,-0.0141,-0.0267,-0.022,-0.0338,-0.0348,-0.0361,-0.0352,-0.0358,-0.0376,-0.0431,-0.0431,-0.034,-0.0338,0,0,-0.0167,-0.014,-0.0178,-0.0191,-0.0147,-0.0215,-0.0223,-0.0344,-0.035,-0.0352,-0.0361,-0.0378,-0.0431,-0.0432,-0.0341,-0.0339,0,0,0,-0.0123,-0.0135,-0.0154,-0.0184,-0.0199,-0.0218,-0.0227,-0.0346,-0.0348,-0.0363,-0.038,-0.0432,-0.0433,-0.0343,-0.0341,-0.0215,0,0,0,-0.0121,-0.0107,-0.015,-0.0139,-0.0196,-0.0277,-0.0226,-0.034,-0.0354,-0.0379,-0.0432,-0.0434,-0.0345,-0.0342,-0.0222,-0.0179,0,0,0,-0.0094,-0.0105,-0.0108,-0.0136,-0.0175,-0.0275,-0.0287,-0.0344,-0.0362,-0.043,-0.0434,-0.0347,-0.0343,-0.0229,-0.019,-0.0107,0,0,0,-0.0081,-0.0065,-0.0107,-0.0098,-0.0173,-0.02,-0.0287,-0.0332,-0.0381,-0.0432,-0.0345,-0.0341,-0.0231,-0.0196,-0.0113,-0.0096,-0.0063,0,0,-0.005,-0.0061,-0.0055,-0.0094,-0.0094,-0.0187,-0.0161,-0.0264,-0.0311,-0.0316,-0.0315,-0.022,-0.019,-0.0108,0.0147,0.0172,0,0,0,-0.0038,-0.0027,-0.0037,-0.0048,-0.0086,-0.0085,-0.018,-0.0175,-0.0165,-0.0314,-0.0169,-0.0154,-0.0107,-0.0108,-0.0087,-0.0124,-0.0321,-0.0322,-0.0322,0.0019,0.0007,0.0031,0.0022,0.0013,-0.0014,0.0008,0.0013,-0.0072,-0.0004,-0.0013,0.0187,0.0192,0.0206,0.017,0.0037,0.0037,0.0038,0.0038,0.0088,0.0109,0.0107,0.0134,0.014,0.0165,0.02,0.0187,0.0261,0.0174,0.0214,0.0073,0.0237,0.0189,0.0047,0.0046,0.0044,0.0044,0.0043,0.013,0.0146,0.0165,0.0221,0.0282,0.0291,0.0403,0.0403,0.0385,0.0433,0.0399,0.0396,0.0316,0.0442,0.0443,0.0443,0.0444,0.0444,0.0445,0.0171,0.0192,0.0258,0.0316,0.0369,0.0452,0.0521,0.057,0.0585,0.0547,0.0547,0.0407,0.0309,0.025,0.0454,0.0452,0.0451,0.045,0.045,0.023,0.0244,0.0341,0.0403,0.0533,0.0641,0.0689,0.0768,0.0795,0.0808,0.0643,0.0611,0.0564,0.0546,0.0493,0.0748,0.0748,0.0748,0.0748,0.027,0.0284,0.0423,0.0532,0.0658,0.0734,0.0873,0.09,0.0841,0.0791,0.0748,0.0658,0.0648,0.0599,0.0579,0.0524,0.0782,0.0782,0.0782,0.0321,0.0358,0.0463,0.0569,0.0714,0.0829,0.0941,0.0967,0.086,0.0777,0.0703,0.0702,0.0558,0.0544,0.0447,0.0423,0.0324,0,0]}],[{"header":{"parameterUnit":"m.s-1","parameterCategory":2,"la1":30.2992,"la2":30.254,"lo1":-89.0895,"lo2":-89.0443,"dy":0.0025,"dx":0.0025,"nx":19,"ny":19,"refTime":"2026-05-12T21:00:00:Z","depth":"2","parameterNumber":2,"parameterNumberName":"U-component_of_CURRENTS"},"data":[0,0,0,0.1656,0.166,0.1902,0.1903,0.2154,0.2156,0,0,0,0,0,0,0,0,0,0,0,0.156,0.156,0.1655,0.166,0.1902,0.1903,0.2154,0.2156,0,0,0,0,0,0,0,0,0,0,0,0.1559,0.156,0.1561,0.1661,0.1901,0.1903,0.2154,0.1995,0,0,0,0,0,0,0,0,0,0,0.1771,0.171,0.156,0.1561,0.1662,0.1901,0.1903,0.1988,0.2005,0.2016,0,0.2021,0,0.2081,0.2168,0.2168,0,0,0,0.1699,0.1696,0.1722,0.1561,0.1663,0.19,0.1804,0.1998,0.2017,0.2037,0.2025,0.2036,0.2085,0.2169,0.217,0.2382,0.2383,0,0,0.1686,0.1653,0.1709,0.1732,0.1684,0.1796,0.1811,0.2011,0.2033,0.2026,0.2043,0.2089,0.217,0.2171,0.2381,0.2382,0,0,0,0.1621,0.1643,0.1668,0.172,0.1762,0.1802,0.1819,0.2025,0.2021,0.2046,0.2092,0.2171,0.2173,0.238,0.2381,0.2318,0,0,0,0.1615,0.1603,0.1661,0.1651,0.1757,0.1913,0.1829,0.2007,0.2032,0.2091,0.2171,0.2175,0.2378,0.238,0.2317,0.2283,0,0,0,0.1556,0.1599,0.1604,0.1647,0.1732,0.1911,0.1924,0.2015,0.2058,0.2168,0.2175,0.2378,0.238,0.2317,0.2283,0.218,0,0,0,0.1548,0.1567,0.1603,0.1666,0.1728,0.1875,0.1924,0.2068,0.2164,0.2172,0.2379,0.2381,0.2316,0.2284,0.2182,0.2011,0.1988,0,0,0.1566,0.1569,0.161,0.1647,0.1734,0.1847,0.1988,0.2125,0.2203,0.2312,0.2319,0.2318,0.2283,0.2181,0.2148,0.212,0,0,0,0.1615,0.1621,0.166,0.1727,0.1834,0.1959,0.2103,0.2147,0.2282,0.2263,0.2384,0.2366,0.23,0.2205,0.2185,0.2392,0.2392,0.2392,0.2391,0.1589,0.1644,0.1708,0.1789,0.1882,0.2049,0.2136,0.2237,0.2297,0.2351,0.2363,0.2313,0.2218,0.2199,0.2425,0.2425,0.2425,0.2425,0.2424,0.1607,0.1644,0.1724,0.1796,0.1911,0.2035,0.2186,0.2239,0.2282,0.2366,0.2305,0.2208,0.2171,0.2421,0.2421,0.2422,0.2422,0.2423,0.2423,0.1581,0.1601,0.1661,0.1754,0.1859,0.2015,0.2063,0.2169,0.2235,0.2215,0.2071,0.2071,0.2196,0.2168,0.2167,0.2166,0.2166,0.2165,0.2165,0.1525,0.1582,0.1608,0.1699,0.1746,0.1839,0.1978,0.1989,0.1972,0.1994,0.1992,0.2225,0.2234,0.2184,0.2156,0.2158,0.2159,0.216,0.216,0.1479,0.1492,0.151,0.1543,0.1619,0.1591,0.173,0.1673,0.1672,0.16,0.1841,0.1852,0.1835,0.1852,0.1795,0.1668,0.1668,0.1668,0.1668,0.1418,0.1439,0.1424,0.1429,0.1443,0.1475,0.1346,0.1324,0.1383,0.1409,0.1421,0.146,0.1485,0.1454,0.148,0.1418,0.1193,0.1192,0.1191,0.138,0.1376,0.1336,0.1348,0.1352,0.1314,0.1128,0.0977,0.0999,0.1179,0.14,0.1624,0.1718,0.1742,0.1729,0.1758,0.1672,0,0]},{"header":{"parameterUnit":"m.s-1","parameterCategory":2,"la1":30.2992,"la2":30.254,"lo1":-89.0895,"lo2":-89.0443,"dy":0.0025,"dx":0.0025,"nx":19,"ny":19,"refTime":"2026-05-12T21:00:00:Z","depth":"2","parameterNumber":3,"parameterNumberName":"V-component_of_CURRENTS"},"data":[0,0,0,0.0211,0.0212,0.0322,0.0323,0.042,0.0421,0,0,0,0,0,0,0,0,0,0,0,0.0178,0.0178,0.021,0.0212,0.0322,0.0323,0.042,0.0421,0,0,0,0,0,0,0,0,0,0,0,0.0178,0.0178,0.0179,0.0213,0.0322,0.0323,0.042,0.0352,0,0,0,0,0,0,0,0,0,0,0.0253,0.0222,0.0178,0.0179,0.0213,0.0322,0.0323,0.035,0.0356,0.0352,0,0.0364,0,0.0383,0.0424,0.0425,0,0,0,0.0231,0.0217,0.0241,0.0179,0.0214,0.0322,0.0278,0.0354,0.0361,0.0361,0.0365,0.0369,0.0384,0.0425,0.0425,0.0477,0.0477,0,0,0.0225,0.0205,0.0236,0.0246,0.0235,0.0274,0.0281,0.0359,0.0365,0.0366,0.0372,0.0386,0.0425,0.0426,0.0476,0.0477,0,0,0,0.0195,0.02,0.0225,0.0242,0.0259,0.0277,0.0285,0.0362,0.0369,0.0373,0.0387,0.0426,0.0426,0.0476,0.0476,0.0557,0,0,0,0.0192,0.0181,0.0222,0.0212,0.0257,0.0317,0.0286,0.0364,0.0373,0.0387,0.0426,0.0427,0.0476,0.0476,0.0554,0.0582,0,0,0,0.0174,0.018,0.0189,0.021,0.0249,0.0317,0.0329,0.0367,0.038,0.0425,0.0427,0.0476,0.0476,0.0552,0.0578,0.0605,0,0,0,0.0155,0.0192,0.0189,0.0238,0.0247,0.034,0.0329,0.0401,0.0445,0.0426,0.0476,0.0476,0.0551,0.0576,0.0603,0.0571,0.0579,0,0,0.0197,0.0197,0.0228,0.0228,0.0338,0.0326,0.0429,0.0472,0.0441,0.045,0.0452,0.0555,0.0578,0.0604,0.0589,0.0597,0,0,0,0.0239,0.0266,0.0299,0.0355,0.0406,0.0473,0.0506,0.0511,0.0532,0.0463,0.0539,0.055,0.0565,0.054,0.0546,0.0478,0.0478,0.0478,0.0478,0.0287,0.0323,0.0397,0.0459,0.0517,0.0578,0.0617,0.0616,0.059,0.0599,0.0605,0.0662,0.0636,0.0641,0.0594,0.0594,0.0594,0.0595,0.0595,0.0366,0.0411,0.0463,0.0542,0.0604,0.0675,0.0723,0.0712,0.0726,0.0678,0.0688,0.0611,0.0653,0.0601,0.06,0.0599,0.0598,0.0598,0.0597,0.0402,0.0428,0.0461,0.057,0.0662,0.0727,0.0802,0.0803,0.0779,0.0795,0.0732,0.073,0.0713,0.0788,0.0788,0.0789,0.0789,0.0789,0.0789,0.0414,0.0455,0.0516,0.0613,0.0681,0.0773,0.0843,0.0861,0.0838,0.0806,0.0805,0.0727,0.0721,0.0723,0.0793,0.0792,0.0792,0.0792,0.0791,0.0462,0.0471,0.0565,0.0626,0.0775,0.0868,0.0914,0.0917,0.0913,0.0887,0.081,0.0808,0.0775,0.0767,0.0769,0.0848,0.0848,0.0848,0.0848,0.0483,0.0499,0.0615,0.0717,0.0841,0.0919,0.0965,0.0938,0.0879,0.0829,0.083,0.0784,0.0782,0.0745,0.0738,0.0738,0.0808,0.0808,0.0808,0.0513,0.0546,0.0629,0.0731,0.0874,0.096,0.0979,0.0907,0.0798,0.0808,0.0834,0.0843,0.0775,0.0772,0.071,0.0702,0.0699,0,0]}],[{"header":{"parameterUnit":"m.s-1","parameterCategory":2,"la1":30.2992,"la2":30.254,"lo1":-89.0895,"lo2":-89.0443,"dy":0.0025,"dx":0.0025,"nx":19,"ny":19,"refTime":"2026-05-12T21:00:00:Z","depth":"4","parameterNumber":2,"parameterNumberName":"U-component_of_CURRENTS"},"data":[0,0,0,0.0593,0.0589,0.0307,0.0306,0.0256,0.0258,0,0,0,0,0,0,0,0,0,0,0,0.071,0.0709,0.0594,0.0588,0.0307,0.0305,0.0256,0.0258,0,0,0,0,0,0,0,0,0,0,0,0.071,0.071,0.0709,0.0587,0.0308,0.0305,0.0256,0.0381,0,0,0,0,0,0,0,0,0,0,0.0611,0.0668,0.071,0.0709,0.0586,0.0308,0.0305,0.0383,0.0373,0.0486,0,0.0476,0,0.0386,0.0265,0.0266,0,0,0,0.0545,0.0675,0.0629,0.0709,0.0584,0.0309,0.0422,0.0374,0.0364,0.0476,0.0474,0.0469,0.0385,0.0266,0.0267,0.0492,0.0494,0,0,0.056,0.0627,0.0636,0.0624,0.0564,0.0431,0.0414,0.0364,0.0369,0.0474,0.0466,0.0385,0.0267,0.0268,0.0491,0.0492,0,0,0,0.0634,0.0638,0.0583,0.0629,0.0564,0.0424,0.0404,0.0368,0.036,0.0464,0.0384,0.0267,0.0269,0.0489,0.0491,0.0523,0,0,0,0.0641,0.0684,0.0592,0.0623,0.0564,0.0415,0.0411,0.0362,0.0352,0.0384,0.0268,0.027,0.0487,0.049,0.0518,0.0572,0,0,0,0.0713,0.0689,0.0678,0.0629,0.0525,0.0412,0.0393,0.0355,0.0308,0.0266,0.027,0.0486,0.0489,0.0514,0.0564,0.0606,0,0,0,0.0758,0.0742,0.0681,0.0636,0.0529,0.0405,0.0391,0.032,0.0288,0.0268,0.0487,0.0491,0.0513,0.0559,0.0602,0.0446,0,0,0,0.0757,0.0744,0.0713,0.0651,0.0551,0.0438,0.0408,0.0387,0.0398,0.0514,0.0515,0.052,0.0563,0.0605,0.0673,0,0,0,0,0.0724,0.0717,0.0672,0.0601,0.05,0.0461,0.0401,0.0412,0.0483,0.0402,0.0589,0.0618,0.0641,0.0541,0.051,0.0509,0.0509,0.0508,0.0508,0.0774,0.0715,0.0673,0.061,0.0565,0.0507,0.0511,0.0555,0.0549,0.0617,0.0692,0.0822,0.0723,0.0728,0.0729,0.0729,0.0729,0.0729,0.0729,0.0758,0.0728,0.0711,0.0669,0.066,0.0667,0.0682,0.0694,0.0809,0.0771,0.079,0.0645,0.0734,0.0733,0.0732,0.0732,0.0732,0.0731,0.0731,0.0759,0.0747,0.075,0.0731,0.0778,0.0784,0.0837,0.088,0.0884,0.0938,0.0845,0.0873,0.0812,0.0951,0.0952,0.0952,0.0953,0.0953,0.0953,0.0752,0.0754,0.0764,0.0786,0.0811,0.0862,0.0924,0.0942,0.0981,0.0924,0.0981,0.0897,0.089,0.0829,0.096,0.0959,0.0958,0.0958,0.0957,0.0724,0.0749,0.0746,0.0769,0.0805,0.0827,0.091,0.0919,0.0952,0.0931,0.0892,0.0893,0.0873,0.0867,0.0802,0.0931,0.0929,0.0928,0,0.0724,0.0725,0.0728,0.0729,0.0735,0.0788,0.0773,0.0812,0.0853,0.0832,0.0948,0.0903,0.0902,0.0876,0.0868,0.0793,0,0,0,0.0716,0.0716,0.0713,0.0703,0.069,0.0705,0.0765,0.0746,0.0859,0.0822,0.089,0.09,0.0894,0.0981,0.0954,0.0945,0.0846,0,0]},{"header":{"parameterUnit":"m.s-1","parameterCategory":2,"la1":30.2992,"la2":30.254,"lo1":-89.0895,"lo2":-89.0443,"dy":0.0025,"dx":0.0025,"nx":19,"ny":19,"refTime":"2026-05-12T21:00:00:Z","depth":"4","parameterNumber":3,"parameterNumberName":"V-component_of_CURRENTS"},"data":[0,0,0,0.0312,0.0316,0.0516,0.0517,0.0732,0.0734,0,0,0,0,0,0,0,0,0,0,0,0.0242,0.0242,0.0312,0.0316,0.0516,0.0517,0.0732,0.0734,0,0,0,0,0,0,0,0,0,0,0,0.0241,0.0242,0.0243,0.0317,0.0516,0.0517,0.0732,0.0598,0,0,0,0,0,0,0,0,0,0,0.0412,0.0355,0.0242,0.0243,0.0318,0.0516,0.0518,0.0592,0.0606,0.062,0,0.0634,0,0.0676,0.0744,0.0745,0,0,0,0.0346,0.0343,0.0378,0.0243,0.0319,0.0515,0.0434,0.0601,0.0616,0.0638,0.0638,0.0647,0.068,0.0745,0.0746,0.0814,0.0814,0,0,0.0335,0.0303,0.0367,0.0387,0.0348,0.0428,0.044,0.0611,0.0627,0.0639,0.0652,0.0683,0.0746,0.0748,0.0815,0.0814,0,0,0,0.0283,0.0295,0.0329,0.0377,0.041,0.0433,0.0447,0.0621,0.0626,0.0655,0.0686,0.0747,0.0749,0.0815,0.0814,0.0788,0,0,0,0.0278,0.0263,0.0323,0.031,0.0406,0.0527,0.0453,0.0614,0.0635,0.0685,0.0747,0.0751,0.0816,0.0815,0.079,0.0791,0,0,0,0.0236,0.026,0.0271,0.0307,0.0379,0.0525,0.0543,0.0621,0.0652,0.0745,0.0751,0.0816,0.0815,0.0792,0.0793,0.0776,0,0,0,0.0215,0.0244,0.027,0.0321,0.0376,0.0468,0.0543,0.0646,0.0723,0.0748,0.0816,0.0815,0.0792,0.0795,0.0777,0.0762,0,0,0,0.024,0.0247,0.0277,0.0304,0.0379,0.0444,0.0535,0.0672,0.0704,0.0763,0.0766,0.079,0.0794,0.0776,0.0698,0,0,0,0,0.0278,0.03,0.0325,0.038,0.0436,0.0499,0.0617,0.0637,0.0706,0.0739,0.0775,0.0778,0.0768,0.0762,0.0809,0.0809,0.081,0.081,0.081,0.0297,0.0329,0.0384,0.0429,0.0475,0.0558,0.0598,0.0642,0.0692,0.0687,0.0745,0.07,0.069,0.0726,0.0726,0.0725,0.0725,0.0725,0.0725,0.0347,0.0385,0.0423,0.0486,0.0518,0.0586,0.0613,0.0635,0.0657,0.068,0.0671,0.072,0.0722,0.0723,0.0723,0.0724,0.0724,0.0724,0.0724,0.0367,0.0386,0.0427,0.0503,0.0564,0.0617,0.0649,0.0664,0.0643,0.0642,0.0653,0.0683,0.0699,0.0652,0.0652,0.0652,0.0652,0.0652,0.0652,0.0363,0.0403,0.0453,0.0526,0.0576,0.0636,0.067,0.066,0.0655,0.0626,0.0655,0.0676,0.0678,0.0695,0.0651,0.0651,0.0651,0.0651,0.0651,0.0385,0.0398,0.0469,0.0518,0.0619,0.0648,0.0684,0.0648,0.0622,0.0578,0.0605,0.0608,0.0619,0.0623,0.0639,0.0576,0.0576,0.0576,0,0.0387,0.0402,0.0489,0.0559,0.0621,0.066,0.0637,0.0622,0.0581,0.058,0.0607,0.0639,0.064,0.0658,0.066,0.0679,0,0,0,0.0396,0.0424,0.0481,0.0559,0.0626,0.0625,0.0633,0.0608,0.0603,0.0553,0.0567,0.0569,0.0626,0.0646,0.0671,0.0674,0.0702,0,0]}]]